Meteo Giornale » Osservazioni meteo Francia » Annecy-Meythet

ore: 13:00 - Osservazioni Meteo Annecy-Meythet
Lat. 45° 55' N Lon. 6° 5' E Alt. 463 metri s.l.m.

coperto Europe/Paris

5 °C

Coperto

Temp. 24 Ore

1 °C

10 °C

Nord/Nord-Est

22.2 Km/h

Dew point 0 °C

Umidità 70 %

Visibilità  10 Km

Il sole sorge alle ore 07:49

Il sole tramonta alle ore 17:49

Data e Ora Cielo e Fenomeni T °C DP °C Um. % Pres. hPa Vis. km Vento km/h
Oggi h: 13:00 coperto Coperto 5 0 70 1031 10 N/NE 22.2
Oggi h: 12:30 coperto Coperto 5 0 70 1031 10 N/NE 22.2
Oggi h: 12:00 coperto Coperto 5 0 70 1032 10 N/NE 22.2
Oggi h: 11:30 coperto Coperto 5 0 70 1032 10 N/NE 16.7
Oggi h: 11:00 coperto Coperto 4 0 75 1032 10 N/NE 16.7
Oggi h: 10:30 coperto Coperto 4 0 75 1032 10 N/NE 14.8
Oggi h: 10:00 coperto Coperto 4 0 75 1032 10 N/NE 14.8
Oggi h: 09:30 coperto Coperto 2 0 86 1032 10 N 0
Oggi h: 09:00 coperto Coperto 2 -0 86 1032 10 N 0
Oggi h: 08:30 coperto Coperto 1 -1 86 1032 10 N 5.5
Oggi h: 07:30 molto_nuvoloso Molto Nuvoloso 1 -2 80 1032 10 N 3.7
Oggi h: 07:00 molto_nuvoloso Molto Nuvoloso 1 -1 86 1031 10 N 3.7
Oggi h: 06:30 sereno Sereno 2 -1 80 1031 10 N 3.7
Oggi h: 06:00 nuvoloso Nuvoloso 2 -0 86 1031 10 N 5.5
Oggi h: 05:30 nuvoloso Nuvoloso 2 -1 80 1031 10 N 3.7
Oggi h: 05:00 sereno Sereno 3 -0 80 1031 10 NE 9.3
Oggi h: 04:30 sereno Sereno 3 0 80 1030 10 N/NE 18.5
Oggi h: 04:00 sereno Sereno 3 0 80 1030 10 NE 16.7
Oggi h: 03:30 sereno Sereno 3 0 80 1030 10 N/NE 18.5
Oggi h: 03:00 poco_nuvoloso Poco Nuvoloso 3 0 80 1030 10 N/NE 22.2
Oggi h: 02:30 sereno Sereno 3 0 80 1031 10 N/NE 16.7
Oggi h: 02:00 sereno Sereno 3 -0 80 1031 10 N/NE 16.7
Oggi h: 01:30 poco_nuvoloso Poco Nuvoloso 3 0 80 1031 10 N 18.5
Oggi h: 01:00 nuvoloso Nuvoloso 3 -0 80 1031 10 N/NE 7.4
Oggi h: 00:30 molto_nuvoloso Molto Nuvoloso 4 -0 75 1031 10 N/NO 7.4
Oggi h: 00:00 sereno Sereno 3 -0 80 1031 10 N 5.5
Ieri h: 23:30 nuvoloso Nuvoloso 4 -0 75 1031 10 N 5.5
Ieri h: 23:00 sereno Sereno 4 -0 75 1031 10 N 5.5
Ieri h: 22:30 sereno Sereno 4 -0 75 1031 10 N/NE 11.1
Ieri h: 22:00 sereno Sereno 4 0 75 1031 10 N/NE 18.5
Ieri h: 21:30 molto_nuvoloso Molto Nuvoloso 4 1 80 1031 10 N 20.3
Ieri h: 21:00 molto_nuvoloso Molto Nuvoloso 4 1 80 1031 10 N/NE 20.3
Ieri h: 20:30 molto_nuvoloso Molto Nuvoloso 4 2 86 1032 10 N/NE 14.8
Ieri h: 20:00 coperto_pioggia Pioggia Debole 5 1 75 1032 10 N/NE 14.8
Ieri h: 19:30 coperto Coperto 6 0 65 1031 10 O/NO 7.4
Ieri h: 19:00 coperto Coperto 6 0 65 1032 10 N/NO 7.4
Ieri h: 18:30 coperto Coperto 6 0 65 1032 10 N 5.5
Ieri h: 18:00 coperto Coperto 6 0 65 1032 10 N/NE 7.4
Ieri h: 17:30 molto_nuvoloso Molto Nuvoloso 7 1 65 1032 10 N/NE 11.1
Ieri h: 17:00 coperto Coperto 7 1 65 1032 10 E/NE 13
Ieri h: 16:30 coperto Coperto 8 1 61 1032 10 N/NE 7.4
Ieri h: 16:00 coperto Coperto 8 0 56 1033 10 N 11.1
Ieri h: 15:30 molto_nuvoloso Molto Nuvoloso 8 0 56 1033 10 N 13
Ieri h: 15:00 coperto Coperto 8 0 56 1033 10 N/NO 14.8
Ieri h: 14:30 coperto Coperto 8 0 56 1033 10 N/NO 20.3
Ieri h: 14:00 molto_nuvoloso Molto Nuvoloso 9 1 57 1033 10 N/NO 22.2
Ieri h: 13:30 sereno Sereno 10 1 53 1033 10 N/NO 14.8
Ieri h: 13:00 sereno Sereno 9 1 57 1034 10 N 13